Weather History for Chandler, OK

Change the Weather History Date:

Tuesday, December 3, 2013

  Actual Average (KCUH) Record (KCUH)
Temperature  
Mean Temperature 56 °F -  
Max Temperature 69 °F 53 °F 77 °F (1970)
Min Temperature 44 °F 30 °F 10 °F (1985)
Degree Days  
Heating Degree Days 8    
Growing Degree Days 6 (Base 50)    
Moisture  
Dew Point 50 °F    
Average Humidity 88    
Maximum Humidity 100    
Minimum Humidity 49    
Precipitation  
Precipitation 0.00 in - - ()
Sea Level Pressure  
Sea Level Pressure 29.57 in    
Wind  
Wind Speed 7 mph (SSE)    
Max Wind Speed 12 mph    
Max Gust Speed 16 mph    
Visibility 5 miles    
Events Fog , Rain    
Averages and records for this station are not official NWS values.
T = Trace of Precipitation, MM = Missing Value Source: NWS Daily Summary

Daily Weather History Graph

Daily Weather History Graph

Search for Another Location

Airport:

Trip Planner

Search our weather history database for the weather conditions in past years. The results will help you decide how hot, cold, wet, or windy it might be!

Date:

Astronomy

Dec. 03, 2013 Rise Set
Actual Time 7:20 AM CST 5:13 PM CST
Civil Twilight 6:52 AM CST 5:41 PM CST
Nautical Twilight 6:20 AM CST 6:13 PM CST
Astronomical Twilight 5:50 AM CST 6:44 PM CST
Moon 7:52 AM CST (12/3) 6:17 PM CST (12/3)
Length of Visible Light 10h 49m
Length of Day
9h 52m
New Moon, 1% of the Moon is Illuminated
Dec 3
New Moon
Dec 9
First Quarter
Dec 17
Full
Dec 25
Last Quarter
Jan 1
New

Hourly Weather History & Observations

Time (CST) Temp. Windchill Dew Point Humidity Pressure Visibility Wind Dir Wind Speed Gust Speed Precip Events Conditions
12:15 AM 46.4 °F 43.5 °F 46.4 °F 100% 29.65 in 1.8 mi South 5.8 mph - N/A   Mist
12:35 AM 46.4 °F 44.3 °F 46.4 °F 100% 29.63 in 0.8 mi SSE 4.6 mph - N/A   Mostly Cloudy
12:55 AM 44.6 °F 41.4 °F 44.6 °F 100% 29.63 in 0.2 mi SSE 5.8 mph - N/A   Unknown
1:15 AM 44.6 °F 42.2 °F 44.6 °F 100% 29.63 in 0.2 mi South 4.6 mph - N/A Rain Light Rain
1:35 AM 46.4 °F 43.5 °F 46.4 °F 100% 29.62 in 0.2 mi South 5.8 mph - N/A Rain Light Rain
1:55 AM 46.4 °F 42.9 °F 46.4 °F 100% 29.61 in 0.2 mi South 6.9 mph - N/A   Light Drizzle
2:15 AM 48.2 °F - 48.2 °F 100% 29.61 in 0.2 mi South 8.1 mph - N/A Fog Fog
2:35 AM 48.2 °F - 48.2 °F 100% 29.62 in 0.5 mi South 8.1 mph - N/A   Light Drizzle
2:55 AM 48.2 °F - 48.2 °F 100% 29.61 in 0.5 mi South 5.8 mph - N/A Fog Fog
3:15 AM 48.2 °F - 48.2 °F 100% 29.60 in 0.2 mi South 5.8 mph - N/A Fog Fog
3:35 AM 48.2 °F - 48.2 °F 100% 29.60 in 0.5 mi South 6.9 mph - N/A Fog Fog
3:55 AM 48.2 °F - 48.2 °F 100% 29.60 in 0.2 mi South 6.9 mph - N/A Fog Fog
4:15 AM 48.2 °F - 48.2 °F 100% 29.59 in 0.2 mi South 6.9 mph - N/A Fog Fog
4:35 AM 48.2 °F - 48.2 °F 100% 29.60 in 0.5 mi South 5.8 mph - N/A Fog Fog
4:55 AM 48.2 °F - 48.2 °F 100% 29.59 in 0.5 mi South 4.6 mph - N/A Fog Fog
5:15 AM 48.2 °F - 48.2 °F 100% 29.59 in 0.5 mi South 5.8 mph - N/A Fog Fog
5:35 AM 48.2 °F - 48.2 °F 100% 29.60 in 0.2 mi South 4.6 mph - N/A Fog Fog
5:55 AM 48.2 °F - 48.2 °F 100% 29.59 in 0.2 mi South 5.8 mph - N/A Fog Fog
6:15 AM 50.0 °F - 50.0 °F 100% 29.58 in 0.2 mi South 8.1 mph - N/A Fog Fog
6:35 AM 50.0 °F - 50.0 °F 100% 29.59 in 0.2 mi SSE 5.8 mph - N/A Fog Fog
6:55 AM 50.0 °F - 50.0 °F 100% 29.59 in 0.2 mi South 5.8 mph - N/A Fog Fog
7:15 AM 50.0 °F - 50.0 °F 100% 29.60 in 0.5 mi South 6.9 mph - N/A Fog Fog
7:35 AM 50.0 °F - 50.0 °F 100% 29.60 in 0.2 mi SSE 3.5 mph - N/A Fog Fog
7:55 AM 50.0 °F - 50.0 °F 100% 29.60 in 0.2 mi SSE 5.8 mph - N/A Fog Fog
8:15 AM 50.0 °F - 50.0 °F 100% 29.60 in 0.2 mi SSE 6.9 mph - N/A Fog Fog
8:35 AM 50.0 °F - 50.0 °F 100% 29.61 in 0.2 mi South 5.8 mph - N/A Fog Fog
8:55 AM 50.0 °F - 50.0 °F 100% 29.60 in 0.2 mi SSE 8.1 mph - N/A Fog Fog
9:15 AM 50.0 °F - 50.0 °F 100% 29.60 in 0.8 mi SSE 4.6 mph - N/A   Overcast
9:35 AM 50.0 °F - 50.0 °F 100% 29.60 in 1.2 mi SE 9.2 mph - N/A   Overcast
9:55 AM 50.0 °F - 50.0 °F 100% 29.61 in 1.8 mi SSE 5.8 mph - N/A   Overcast
10:15 AM 50.0 °F - 50.0 °F 100% 29.62 in 2.0 mi SSE 9.2 mph - N/A   Overcast
10:35 AM 51.8 °F - 51.8 °F 100% 29.62 in 4.0 mi SSE 6.9 mph - N/A   Overcast
10:55 AM 51.8 °F - 51.8 °F 100% 29.62 in 5.0 mi SSE 8.1 mph - N/A   Overcast
11:15 AM 53.6 °F - 53.6 °F 100% 29.61 in 7.0 mi SSE 9.2 mph - N/A   Mostly Cloudy
11:35 AM 55.4 °F - 53.6 °F 94% 29.59 in 10.0 mi SSE 8.1 mph - N/A   Scattered Clouds
11:55 AM 59.0 °F - 53.6 °F 82% 29.56 in 10.0 mi SE 10.4 mph - N/A   Clear
12:15 PM 60.8 °F - 53.6 °F 77% 29.55 in 10.0 mi SSE 9.2 mph - N/A   Clear
12:35 PM 62.6 °F - 53.6 °F 72% 29.54 in 10.0 mi SSE 9.2 mph - N/A   Clear
12:55 PM 64.4 °F - 53.6 °F 68% 29.54 in 10.0 mi South 10.4 mph - N/A   Clear
1:15 PM 64.4 °F - 53.6 °F 68% 29.53 in 10.0 mi SSW 10.4 mph - N/A   Clear
1:35 PM 66.2 °F - 53.6 °F 64% 29.51 in 10.0 mi South 10.4 mph - N/A   Clear
1:55 PM 68.0 °F - 53.6 °F 60% 29.50 in 10.0 mi South 8.1 mph - N/A   Clear
2:15 PM 68.0 °F - 53.6 °F 60% 29.50 in 10.0 mi South 5.8 mph - N/A   Clear
2:35 PM 69.8 °F - 53.6 °F 56% 29.50 in 7.0 mi South 6.9 mph - N/A   Clear
2:55 PM 69.8 °F - 53.6 °F 56% 29.49 in 10.0 mi South 5.8 mph - N/A   Clear
3:15 PM 69.8 °F - 51.8 °F 53% 29.49 in 10.0 mi SSE 8.1 mph - N/A   Clear
3:35 PM 69.8 °F - 51.8 °F 53% 29.50 in 10.0 mi South 10.4 mph - N/A   Clear
3:55 PM 69.8 °F - 50.0 °F 49% 29.50 in 10.0 mi South 11.5 mph - N/A   Clear
4:15 PM 69.8 °F - 50.0 °F 49% 29.50 in 7.0 mi South 9.2 mph 16.1 mph N/A   Clear
4:35 PM 68.0 °F - 50.0 °F 52% 29.50 in 10.0 mi South 6.9 mph - N/A   Clear
4:55 PM 66.2 °F - 50.0 °F 56% 29.51 in 10.0 mi South 5.8 mph - N/A   Clear
5:15 PM 62.6 °F - 50.0 °F 63% 29.52 in 7.0 mi South 5.8 mph - N/A   Clear
5:35 PM 60.8 °F - 50.0 °F 68% 29.53 in 10.0 mi South 5.8 mph - N/A   Clear
5:55 PM 59.0 °F - 50.0 °F 72% 29.54 in 10.0 mi South 6.9 mph - N/A   Clear
6:15 PM 60.8 °F - 51.8 °F 72% 29.54 in 10.0 mi South 9.2 mph - N/A   Clear
6:35 PM 59.0 °F - 51.8 °F 77% 29.55 in 10.0 mi South 6.9 mph - N/A   Clear
6:55 PM 59.0 °F - 51.8 °F 77% 29.55 in 10.0 mi South 8.1 mph - N/A   Clear
7:15 PM 55.4 °F - 51.8 °F 88% 29.56 in 10.0 mi South 6.9 mph - N/A   Clear
7:35 PM 55.4 °F - 51.8 °F 88% 29.56 in 10.0 mi South 6.9 mph - N/A   Clear
7:55 PM 53.6 °F - 51.8 °F 94% 29.56 in 10.0 mi South 9.2 mph - N/A   Clear
8:15 PM 53.6 °F - 51.8 °F 94% 29.56 in 10.0 mi South 8.1 mph - N/A   Clear
8:35 PM 51.8 °F - 51.8 °F 100% 29.56 in 10.0 mi South 6.9 mph - N/A   Clear
8:55 PM 51.8 °F - 51.8 °F 100% 29.56 in 7.0 mi South 9.2 mph - N/A   Clear
9:15 PM 51.8 °F - 51.8 °F 100% 29.56 in 7.0 mi South 8.1 mph - N/A   Clear
9:35 PM 50.0 °F - 50.0 °F 100% 29.56 in 7.0 mi South 6.9 mph - N/A   Clear
9:55 PM 50.0 °F - 50.0 °F 100% 29.56 in 5.0 mi South 9.2 mph - N/A   Clear
10:15 PM 50.0 °F - 50.0 °F 100% 29.56 in 5.0 mi South 10.4 mph - N/A   Clear
10:35 PM 50.0 °F - 50.0 °F 100% 29.56 in 5.0 mi South 6.9 mph - N/A   Clear
10:55 PM 48.2 °F - 48.2 °F 100% 29.56 in 5.0 mi South 8.1 mph - N/A   Clear
11:15 PM 48.2 °F - 48.2 °F 100% 29.55 in 4.0 mi SSE 5.8 mph - N/A   Clear
11:35 PM 48.2 °F - 48.2 °F 100% 29.54 in 4.0 mi South 6.9 mph - N/A   Clear
11:55 PM 48.2 °F - 48.2 °F 100% 29.53 in 4.0 mi SSE 5.8 mph - N/A   Clear